Kaprifol — 5BXX2 — position and weather

sailwx.info

Track history (hours):
 
Tides and Currents Weather Stations Pressure Air Temp Water Temp Dewpoint Dewpoint Depression Visibility Wind Speed Wind Dir Waves Ship Positions

Kaprifol

Last reported at 2014-Oct-29 23:30 UTC. Time now 2014-Nov-01 11:11 UTC.
Position N 62°23' W 006°55'.

Length 90 m; draft 4.8 m.

Type: Tanker. MMSI: 210445000.

Date/timePositionNaut miles runAvg speedWind from/ knotsBaromVisibWave heightAir tempDewpointWater temp
2014-Oct-29 23:30N 62°23' W 006°55'7 7.5
2014-Oct-29 22:31N 62°18' W 007°06'0 0.3
2014-Oct-29 21:31N 62°18' W 007°06'0 0.0
2014-Oct-29 20:28N 62°18' W 007°06'0 0.0
2014-Oct-29 19:31N 62°18' W 007°06'0 0.0
2014-Oct-29 18:31N 62°18' W 007°06'0 0.0
2014-Oct-29 17:31N 62°18' W 007°06'0 0.0
2014-Oct-29 16:28N 62°18' W 007°06'0 0.0
2014-Oct-29 15:31N 62°18' W 007°06'0 0.0
2014-Oct-29 14:31N 62°18' W 007°06'0 0.0
2014-Oct-29 13:31N 62°18' W 007°06'0 0.0
2014-Oct-29 12:31N 62°18' W 007°06'0 0.0
2014-Oct-29 11:31N 62°18' W 007°06'0 0.0
2014-Oct-29 10:31N 62°18' W 007°06'0 0.0
2014-Oct-29 09:28N 62°18' W 007°06'0 0.0
2014-Oct-29 08:31N 62°18' W 007°06'0 0.0
2014-Oct-29 07:31N 62°18' W 007°06'7 3.4
2014-Oct-29 05:19N 62°18' W 006°50'4 4.7
2014-Oct-29 04:33N 62°14' W 006°48'0 0.0
2014-Oct-29 03:33N 62°14' W 006°48'0 0.0
2014-Oct-29 02:33N 62°14' W 006°48'0 0.0
2014-Oct-29 01:33N 62°14' W 006°48'0 0.0
2014-Oct-29 00:33N 62°14' W 006°48'0 0.0
2014-Oct-28 23:33N 62°14' W 006°48'0 0.0
2014-Oct-28 22:33N 62°14' W 006°48'0 0.0
2014-Oct-28 21:33N 62°14' W 006°48'0 0.0
2014-Oct-28 20:33N 62°14' W 006°48'0 0.0
2014-Oct-28 19:33N 62°14' W 006°48'0 0.0
2014-Oct-28 18:33N 62°14' W 006°48'0 0.0
2014-Oct-28 17:33N 62°14' W 006°48'0 0.0
2014-Oct-28 16:33N 62°14' W 006°48'0 0.0
2014-Oct-28 15:33N 62°14' W 006°48'0 0.0
2014-Oct-28 14:33N 62°14' W 006°48'0 0.0
2014-Oct-28 13:33N 62°14' W 006°48'0 0.0
2014-Oct-28 12:33N 62°14' W 006°48'0 0.0
2014-Oct-28 11:33N 62°14' W 006°48'0 0.2
2014-Oct-28 10:33N 62°14' W 006°48'5 4.7
2014-Oct-28 09:33N 62°13' W 006°39'9 9.4
2014-Oct-28 08:34N 62°10' W 006°20'  
2014-Oct-23 16:21N 59°05' E 004°54'911.1
2014-Oct-23 15:33N 58°57' E 005°03'1010.4
2014-Oct-23 14:33N 58°49' E 005°14'2110.6
2014-Oct-23 12:32N 58°31' E 005°37'1111.5
2014-Oct-23 11:33N 58°24' E 005°54'4 3.7
2014-Oct-23 10:32N 58°26' E 005°59'0 0.0
2014-Oct-23 09:32N 58°26' E 005°59'0 0.0
2014-Oct-23 08:32N 58°26' E 005°59'0 0.0
2014-Oct-23 07:32N 58°26' E 005°59'0 0.0
2014-Oct-23 06:32N 58°26' E 005°59'0 0.0
2014-Oct-23 05:32N 58°26' E 005°59'0 0.0
2014-Oct-23 04:32N 58°26' E 005°59'0 0.0
2014-Oct-23 03:32N 58°26' E 005°59'0 0.0
2014-Oct-23 02:32N 58°26' E 005°59'0 0.0
2014-Oct-23 01:32N 58°26' E 005°59'0 0.0
2014-Oct-23 00:32N 58°26' E 005°59'0 0.0
2014-Oct-22 23:32N 58°26' E 005°59'0 0.0
2014-Oct-22 22:32N 58°26' E 005°59'0 0.0
2014-Oct-22 21:32N 58°26' E 005°59'0 0.0
2014-Oct-22 20:32N 58°26' E 005°59'1 1.0
2014-Oct-22 19:33N 58°25' E 005°60'5 4.6
2014-Oct-22 18:33N 58°25' E 005°51'8 8.2
2014-Oct-22 17:33N 58°30' E 005°39'2110.4
2014-Oct-22 15:30N 58°44' E 005°07'1110.3
2014-Oct-22 14:27N 58°53' E 004°59'7 7.7
2014-Oct-22 13:34N 58°60' E 005°03'1010.3
2014-Oct-22 12:33N 59°05' E 005°20'1110.6
2014-Oct-22 11:33N 59°09' E 005°40'10 9.7
2014-Oct-22 10:33N 59°07' E 005°59'1 0.8
2014-Oct-22 09:31N 59°07' E 006°00'0 0.0
2014-Oct-22 08:31N 59°07' E 006°00'0 0.0
2014-Oct-22 07:31N 59°07' E 006°00'0 0.0
2014-Oct-22 06:31N 59°07' E 006°00'0 0.0
2014-Oct-22 05:31N 59°07' E 006°00'0 0.0
2014-Oct-22 04:31N 59°07' E 006°00'0 0.0
2014-Oct-22 03:31N 59°07' E 006°00'0 0.0
2014-Oct-22 02:34N 59°07' E 006°00'0 0.0
2014-Oct-22 01:34N 59°07' E 006°00'0 0.0
2014-Oct-22 00:33N 59°07' E 006°00'0 0.0
2014-Oct-21 23:30N 59°07' E 006°00'0 0.0
2014-Oct-21 22:33N 59°07' E 006°00'0 0.0
2014-Oct-21 21:33N 59°07' E 006°00'0 0.0
2014-Oct-21 20:33N 59°07' E 006°00'0 0.0
2014-Oct-21 19:33N 59°07' E 006°00'0 0.0
2014-Oct-21 18:33N 59°07' E 006°00'0 0.0
2014-Oct-21 17:33N 59°07' E 006°00'0 0.0
2014-Oct-21 16:33N 59°07' E 006°00'0 0.0
2014-Oct-21 15:33N 59°07' E 006°00'0 0.0
2014-Oct-21 14:33N 59°07' E 006°00'0 0.0
2014-Oct-21 13:32N 59°07' E 006°00'5 5.1
2014-Oct-21 12:33N 59°04' E 005°52'7 6.6
2014-Oct-21 11:33N 58°58' E 005°45'0 0.0
2014-Oct-21 10:33N 58°58' E 005°45'0 0.0
2014-Oct-21 09:33N 58°58' E 005°45'0 0.0
2014-Oct-21 08:33N 58°58' E 005°45'0 0.0
2014-Oct-21 07:33N 58°58' E 005°45'0 0.0
2014-Oct-21 06:33N 58°58' E 005°45'0 0.0
2014-Oct-21 05:33N 58°58' E 005°45'0 0.0
2014-Oct-21 04:33N 58°58' E 005°45'0 0.0
2014-Oct-21 03:33N 58°58' E 005°45'0 0.0
2014-Oct-21 02:33N 58°58' E 005°45'0 0.0
2014-Oct-21 01:33N 58°58' E 005°45'0 0.0
2014-Oct-21 00:33N 58°58' E 005°45'0 0.0
2014-Oct-20 23:33N 58°58' E 005°45'0 0.0
2014-Oct-20 22:33N 58°58' E 005°45'0 0.0
2014-Oct-20 21:33N 58°58' E 005°45'0 0.0
2014-Oct-20 20:33N 58°58' E 005°45'0 0.0
2014-Oct-20 19:32N 58°58' E 005°45'0 0.0
2014-Oct-20 18:32N 58°58' E 005°45'0 0.0
2014-Oct-20 17:32N 58°58' E 005°45'0 0.0
2014-Oct-20 16:32N 58°58' E 005°45'0 0.0
2014-Oct-20 15:32N 58°58' E 005°45'0 0.0
2014-Oct-20 14:32N 58°58' E 005°45'1 1.4
2014-Oct-20 13:34N 58°59' E 005°48'9 8.8
2014-Oct-20 12:33N 59°04' E 005°33'1010.3
2014-Oct-20 11:33N 59°06' E 005°14'1010.1
2014-Oct-20 10:33N 59°14' E 005°01'  
Track history (hours):
 
Tides and Currents Weather Stations Pressure Air Temp Water Temp Dewpoint Dewpoint Depression Visibility Wind Speed Wind Dir Waves Ship Positions

Kaprifol

Last reported at 2014-Oct-29 23:30 UTC. Time now 2014-Nov-01 11:11 UTC.
Position N 62°23' W 006°55'.

Length 90 m; draft 4.8 m.

Type: Tanker. MMSI: 210445000.

Date/timePositionNaut miles runAvg speedWind from/ knotsBaromVisibWave heightAir tempDewpointWater temp
2014-Oct-29 23:30N 62°23' W 006°55'7 7.5
2014-Oct-29 22:31N 62°18' W 007°06'0 0.3
2014-Oct-29 21:31N 62°18' W 007°06'0 0.0
2014-Oct-29 20:28N 62°18' W 007°06'0 0.0
2014-Oct-29 19:31N 62°18' W 007°06'0 0.0
2014-Oct-29 18:31N 62°18' W 007°06'0 0.0
2014-Oct-29 17:31N 62°18' W 007°06'0 0.0
2014-Oct-29 16:28N 62°18' W 007°06'0 0.0
2014-Oct-29 15:31N 62°18' W 007°06'0 0.0
2014-Oct-29 14:31N 62°18' W 007°06'0 0.0
2014-Oct-29 13:31N 62°18' W 007°06'0 0.0
2014-Oct-29 12:31N 62°18' W 007°06'0 0.0
2014-Oct-29 11:31N 62°18' W 007°06'0 0.0
2014-Oct-29 10:31N 62°18' W 007°06'0 0.0
2014-Oct-29 09:28N 62°18' W 007°06'0 0.0
2014-Oct-29 08:31N 62°18' W 007°06'0 0.0
2014-Oct-29 07:31N 62°18' W 007°06'7 3.4
2014-Oct-29 05:19N 62°18' W 006°50'4 4.7
2014-Oct-29 04:33N 62°14' W 006°48'0 0.0
2014-Oct-29 03:33N 62°14' W 006°48'0 0.0
2014-Oct-29 02:33N 62°14' W 006°48'0 0.0
2014-Oct-29 01:33N 62°14' W 006°48'0 0.0
2014-Oct-29 00:33N 62°14' W 006°48'0 0.0
2014-Oct-28 23:33N 62°14' W 006°48'0 0.0
2014-Oct-28 22:33N 62°14' W 006°48'0 0.0
2014-Oct-28 21:33N 62°14' W 006°48'0 0.0
2014-Oct-28 20:33N 62°14' W 006°48'0 0.0
2014-Oct-28 19:33N 62°14' W 006°48'0 0.0
2014-Oct-28 18:33N 62°14' W 006°48'0 0.0
2014-Oct-28 17:33N 62°14' W 006°48'0 0.0
2014-Oct-28 16:33N 62°14' W 006°48'0 0.0
2014-Oct-28 15:33N 62°14' W 006°48'0 0.0
2014-Oct-28 14:33N 62°14' W 006°48'0 0.0
2014-Oct-28 13:33N 62°14' W 006°48'0 0.0
2014-Oct-28 12:33N 62°14' W 006°48'0 0.0
2014-Oct-28 11:33N 62°14' W 006°48'0 0.2
2014-Oct-28 10:33N 62°14' W 006°48'5 4.7
2014-Oct-28 09:33N 62°13' W 006°39'9 9.4
2014-Oct-28 08:34N 62°10' W 006°20'  
2014-Oct-23 16:21N 59°05' E 004°54'911.1
2014-Oct-23 15:33N 58°57' E 005°03'1010.4
2014-Oct-23 14:33N 58°49' E 005°14'2110.6
2014-Oct-23 12:32N 58°31' E 005°37'1111.5
2014-Oct-23 11:33N 58°24' E 005°54'4 3.7
2014-Oct-23 10:32N 58°26' E 005°59'0 0.0
2014-Oct-23 09:32N 58°26' E 005°59'0 0.0
2014-Oct-23 08:32N 58°26' E 005°59'0 0.0
2014-Oct-23 07:32N 58°26' E 005°59'0 0.0
2014-Oct-23 06:32N 58°26' E 005°59'0 0.0
2014-Oct-23 05:32N 58°26' E 005°59'0 0.0
2014-Oct-23 04:32N 58°26' E 005°59'0 0.0
2014-Oct-23 03:32N 58°26' E 005°59'0 0.0
2014-Oct-23 02:32N 58°26' E 005°59'0 0.0
2014-Oct-23 01:32N 58°26' E 005°59'0 0.0
2014-Oct-23 00:32N 58°26' E 005°59'0 0.0
2014-Oct-22 23:32N 58°26' E 005°59'0 0.0
2014-Oct-22 22:32N 58°26' E 005°59'0 0.0
2014-Oct-22 21:32N 58°26' E 005°59'0 0.0
2014-Oct-22 20:32N 58°26' E 005°59'1 1.0
2014-Oct-22 19:33N 58°25' E 005°60'5 4.6
2014-Oct-22 18:33N 58°25' E 005°51'8 8.2
2014-Oct-22 17:33N 58°30' E 005°39'2110.4
2014-Oct-22 15:30N 58°44' E 005°07'1110.3
2014-Oct-22 14:27N 58°53' E 004°59'7 7.7
2014-Oct-22 13:34N 58°60' E 005°03'1010.3
2014-Oct-22 12:33N 59°05' E 005°20'1110.6
2014-Oct-22 11:33N 59°09' E 005°40'10 9.7
2014-Oct-22 10:33N 59°07' E 005°59'1 0.8
2014-Oct-22 09:31N 59°07' E 006°00'0 0.0
2014-Oct-22 08:31N 59°07' E 006°00'0 0.0
2014-Oct-22 07:31N 59°07' E 006°00'0 0.0
2014-Oct-22 06:31N 59°07' E 006°00'0 0.0
2014-Oct-22 05:31N 59°07' E 006°00'0 0.0
2014-Oct-22 04:31N 59°07' E 006°00'0 0.0
2014-Oct-22 03:31N 59°07' E 006°00'0 0.0
2014-Oct-22 02:34N 59°07' E 006°00'0 0.0
2014-Oct-22 01:34N 59°07' E 006°00'0 0.0
2014-Oct-22 00:33N 59°07' E 006°00'0 0.0
2014-Oct-21 23:30N 59°07' E 006°00'0 0.0
2014-Oct-21 22:33N 59°07' E 006°00'0 0.0
2014-Oct-21 21:33N 59°07' E 006°00'0 0.0
2014-Oct-21 20:33N 59°07' E 006°00'0 0.0
2014-Oct-21 19:33N 59°07' E 006°00'0 0.0
2014-Oct-21 18:33N 59°07' E 006°00'0 0.0
2014-Oct-21 17:33N 59°07' E 006°00'0 0.0
2014-Oct-21 16:33N 59°07' E 006°00'0 0.0
2014-Oct-21 15:33N 59°07' E 006°00'0 0.0
2014-Oct-21 14:33N 59°07' E 006°00'0 0.0
2014-Oct-21 13:32N 59°07' E 006°00'5 5.1
2014-Oct-21 12:33N 59°04' E 005°52'7 6.6
2014-Oct-21 11:33N 58°58' E 005°45'0 0.0
2014-Oct-21 10:33N 58°58' E 005°45'0 0.0
2014-Oct-21 09:33N 58°58' E 005°45'0 0.0
2014-Oct-21 08:33N 58°58' E 005°45'0 0.0
2014-Oct-21 07:33N 58°58' E 005°45'0 0.0
2014-Oct-21 06:33N 58°58' E 005°45'0 0.0
2014-Oct-21 05:33N 58°58' E 005°45'0 0.0
2014-Oct-21 04:33N 58°58' E 005°45'0 0.0
2014-Oct-21 03:33N 58°58' E 005°45'0 0.0
2014-Oct-21 02:33N 58°58' E 005°45'0 0.0
2014-Oct-21 01:33N 58°58' E 005°45'0 0.0
2014-Oct-21 00:33N 58°58' E 005°45'0 0.0
2014-Oct-20 23:33N 58°58' E 005°45'0 0.0
2014-Oct-20 22:33N 58°58' E 005°45'0 0.0
2014-Oct-20 21:33N 58°58' E 005°45'0 0.0
2014-Oct-20 20:33N 58°58' E 005°45'0 0.0
2014-Oct-20 19:32N 58°58' E 005°45'0 0.0
2014-Oct-20 18:32N 58°58' E 005°45'0 0.0
2014-Oct-20 17:32N 58°58' E 005°45'0 0.0
2014-Oct-20 16:32N 58°58' E 005°45'0 0.0
2014-Oct-20 15:32N 58°58' E 005°45'0 0.0
2014-Oct-20 14:32N 58°58' E 005°45'1 1.4
2014-Oct-20 13:34N 58°59' E 005°48'9 8.8
2014-Oct-20 12:33N 59°04' E 005°33'1010.3
2014-Oct-20 11:33N 59°06' E 005°14'1010.1
2014-Oct-20 10:33N 59°14' E 005°01'  

Dump ship's entire track history